AEHF-2 (USA 235)

Last updated on Tue Sep 22 2026 00:03:12 GMT+0000 (Coordinated Universal Time)

1 38254U 12019A 26264.12948909 -.00000135 00000+0 00000+0 0 9995 2 38254 6.8679 56.7176 0002655 140.7251 192.7315 1.00271212 7944
UTC large
Height (km)
Speed (km/s)
/
Latitude / Longitude
Inclination (degrees)
Orbital Period (minutes)
Azimuth
Elevation
Range (km)
Doppler Factor

Next 0 passes for location: London (51.5072 / 0.1276)

No passes found over London.
AEHF-2 (USA 235)